Salem, IL

3:25 PM CDT on May 26, 2017 (GMT -0500)
Salem-Leckrone

Weather History for KSLO - June, 2014

Change the Weather History Date:

Monday, June 23, 2014

  Actual Average Record
Temperature  
Mean Temperature 80 °F -  
Max Temperature 90 °F 86 °F 99 °F (1988)
Min Temperature 69 °F 63 °F 46 °F (1972)
Cooling Degree Days 14    
Growing Degree Days 30 (Base 50)    
Moisture  
Dew Point 72 °F    
Average Humidity 86    
Maximum Humidity 98    
Minimum Humidity 56    
Precipitation  
Precipitation 0.87 in - - ()
Sea Level Pressure  
Sea Level Pressure 29.88 in    
Wind  
Wind Speed 3 mph (SSE)    
Max Wind Speed 13 mph    
Max Gust Speed 36 mph    
Visibility 9 miles    
Events Rain , Thunderstorm    
Averages and records for this station are not official NWS values.
T = Trace of Precipitation, MM = Missing Value Source: NWS Daily Summary

Daily Weather History Graph

Daily Weather History Graph

Search for Another Location

Airport or City:

Trip Planner

Search our weather history database for the weather conditions in past years. The results will help you decide how hot, cold, wet, or windy it might be!

Date:

Astronomy

Jun. 23, 2014 Rise Set
Actual Time 5:32 AM CDT 8:24 PM CDT
Civil Twilight 5:00 AM CDT 8:56 PM CDT
Nautical Twilight 4:19 AM CDT 9:36 PM CDT
Astronomical Twilight 3:33 AM CDT 10:22 PM CDT
Moon 2:56 AM CDT (6/23) 5:06 PM CDT (6/23)
Length of Visible Light 15h 55m
Length of Day
14h 52m
Waning Crescent, 13% of the Moon is Illuminated
Jun 23
Waning Crescent
Jun 27
New
Jul 5
First Quarter
Jul 12
Full
Jul 18
Last Quarter

Hourly Weather History & Observations

Time (CDT) Temp. Heat Index Dew Point Humidity Pressure Visibility Wind Dir Wind Speed Gust Speed Precip Events Conditions
12:15 AM 73.4 °F - 71.6 °F 94% 29.88 in 10.0 mi Calm Calm - N/A   Clear
12:35 AM 72.7 °F - 70.7 °F 93% - 10.0 mi Calm Calm - N/A   Clear
12:55 AM 73.6 °F - 71.6 °F 93% 29.88 in 10.0 mi Calm Calm - N/A   Clear
1:15 AM 73.4 °F - 71.6 °F 94% 29.87 in 10.0 mi Calm Calm - N/A   Clear
1:35 AM 72.1 °F - 70.7 °F 95% 29.87 in 7.0 mi NE 4.6 mph - N/A   Clear
1:55 AM 72.9 °F - 70.9 °F 93% 29.88 in 10.0 mi NNW 5.8 mph - N/A   Clear
2:15 AM 72.9 °F - 71.1 °F 94% 29.88 in 10.0 mi Calm Calm - N/A   Clear
2:35 AM 72.5 °F - 71.1 °F 95% 29.88 in 7.0 mi Calm Calm - N/A   Clear
2:55 AM 72.1 °F - 70.5 °F 95% 29.87 in 10.0 mi East 3.5 mph - N/A   Clear
3:15 AM 72.7 °F - 70.2 °F 92% 29.86 in 10.0 mi East 3.5 mph - N/A   Clear
3:35 AM 72.9 °F - 70.2 °F 91% 29.85 in 10.0 mi East 3.5 mph - N/A   Clear
3:55 AM 73.4 °F - 69.8 °F 88% 29.85 in 10.0 mi Calm Calm - N/A   Clear
4:15 AM 71.8 °F - 70.0 °F 94% 29.86 in 10.0 mi Calm Calm - N/A   Clear
4:35 AM 71.4 °F - 70.3 °F 96% 29.86 in 7.0 mi ESE 3.5 mph - N/A   Clear
4:55 AM 72.5 °F - 70.9 °F 95% 29.87 in 10.0 mi Calm Calm - N/A   Clear
5:15 AM 72.0 °F - 70.7 °F 96% 29.87 in 7.0 mi SE 3.5 mph - N/A   Clear
5:35 AM 72.0 °F - 70.7 °F 96% 29.88 in 7.0 mi SE 3.5 mph - N/A   Clear
5:55 AM 72.7 °F - 71.1 °F 95% 29.88 in 7.0 mi SE 3.5 mph - N/A   Clear
6:15 AM 73.0 °F - 71.2 °F 94% 29.87 in 7.0 mi SE 4.6 mph - N/A   Clear
6:35 AM 73.4 °F - 71.6 °F 94% 29.88 in 7.0 mi Calm Calm - N/A   Clear
6:55 AM 74.5 °F - 72.1 °F 92% 29.88 in 7.0 mi SE 4.6 mph - N/A   Clear
7:15 AM 75.9 °F - 72.5 °F 89% 29.88 in 10.0 mi South 4.6 mph - N/A   Scattered Clouds
7:35 AM 76.3 °F - 72.1 °F 87% 29.88 in 10.0 mi South 4.6 mph - N/A   Mostly Cloudy
7:55 AM 77.2 °F - 72.7 °F 86% 29.89 in 10.0 mi South 3.5 mph - N/A   Mostly Cloudy
8:15 AM 77.9 °F - 72.3 °F 83% 29.89 in 10.0 mi South 5.8 mph - N/A   Mostly Cloudy
8:35 AM 79.9 °F - 72.3 °F 78% 29.88 in 10.0 mi South 8.1 mph - N/A   Scattered Clouds
8:55 AM 82.2 °F 87.3 °F 72.3 °F 72% 29.89 in 10.0 mi South 6.9 mph - N/A   Clear
9:15 AM 82.8 °F 88.4 °F 72.9 °F 72% 29.89 in 10.0 mi SSW 6.9 mph - N/A   Scattered Clouds
9:35 AM 84.0 °F 90.2 °F 73.0 °F 69% 29.89 in 10.0 mi SSW 5.8 mph - N/A   Scattered Clouds
9:55 AM 84.4 °F 91.0 °F 73.2 °F 69% 29.89 in 10.0 mi South 5.8 mph - N/A   Scattered Clouds
10:15 AM 84.7 °F 91.7 °F 73.6 °F 69% 29.89 in 10.0 mi SSE 4.6 mph - N/A   Scattered Clouds
10:35 AM 85.6 °F 93.0 °F 73.8 °F 67% 29.90 in 10.0 mi WSW 4.6 mph - N/A   Mostly Cloudy
10:55 AM 85.8 °F 93.4 °F 73.8 °F 67% 29.89 in 10.0 mi SSE 4.6 mph - N/A   Scattered Clouds
11:15 AM 87.3 °F 95.3 °F 73.8 °F 64% 29.90 in 10.0 mi South 5.8 mph - N/A   Clear
11:35 AM 87.6 °F 95.7 °F 73.8 °F 63% 29.90 in 10.0 mi SW 9.2 mph - N/A   Scattered Clouds
11:55 AM 88.9 °F 98.1 °F 74.3 °F 62% 29.90 in 10.0 mi South 8.1 mph - N/A   Scattered Clouds
12:15 PM 89.6 °F 98.7 °F 74.1 °F 60% 29.89 in 10.0 mi SSW 9.2 mph - N/A   Scattered Clouds
12:35 PM 89.6 °F 98.2 °F 73.8 °F 59% 29.89 in 10.0 mi SW 6.9 mph - N/A   Scattered Clouds
12:55 PM 90.1 °F 97.8 °F 72.5 °F 56% 29.88 in 10.0 mi WSW 8.1 mph - N/A   Clear
1:15 PM 87.8 °F 94.3 °F 72.0 °F 59% 29.88 in 10.0 mi South 10.4 mph - N/A   Mostly Cloudy
1:35 PM 69.4 °F - 68.7 °F 98% 29.89 in 0.5 mi NE 11.5 mph 35.7 mph 0.60 in Rain , Thunderstorm Heavy Thunderstorms and Rain
1:55 PM 72.5 °F - 71.1 °F 95% 29.88 in 10.0 mi ESE 4.6 mph - 0.60 in Rain , Thunderstorm Light Thunderstorms and Rain
2:15 PM 75.9 °F - 74.8 °F 96% 29.88 in 10.0 mi Calm Calm - N/A   Clear
2:35 PM 78.8 °F - 77.4 °F 95% 29.87 in 10.0 mi SE 4.6 mph - N/A Thunderstorm Scattered Clouds
2:55 PM 84.0 °F 94.4 °F 77.5 °F 81% 29.86 in 10.0 mi Calm Calm - N/A Thunderstorm Scattered Clouds
3:15 PM 75.4 °F - 71.6 °F 88% 29.87 in 1.8 mi NW 8.1 mph - 0.17 in Rain , Thunderstorm Heavy Thunderstorms and Rain
3:35 PM 75.7 °F - 72.0 °F 88% 29.88 in 10.0 mi NNE 8.1 mph - 0.17 in Rain , Thunderstorm Light Thunderstorms and Rain
3:55 PM 76.8 °F - 73.2 °F 89% 29.87 in 10.0 mi ENE 3.5 mph - 0.17 in   Clear
4:15 PM 77.2 °F - 73.0 °F 87% 29.86 in 10.0 mi Calm Calm - N/A   Scattered Clouds
4:35 PM 78.1 °F - 74.1 °F 88% 29.85 in 10.0 mi ENE 4.6 mph - N/A   Clear
4:55 PM 79.2 °F - 74.7 °F 86% 29.86 in 10.0 mi ESE 4.6 mph - N/A   Clear
5:15 PM 80.2 °F 85.2 °F 74.7 °F 83% 29.85 in 10.0 mi ESE 3.5 mph - N/A Thunderstorm Clear
5:35 PM 80.6 °F 86.2 °F 75.4 °F 84% 29.85 in 10.0 mi SSE 4.6 mph - N/A Thunderstorm Clear
5:55 PM 81.5 °F 86.7 °F 73.2 °F 76% 29.85 in 10.0 mi SSW 12.7 mph - N/A   Clear
6:15 PM 77.9 °F - 72.3 °F 83% 29.85 in 10.0 mi South 8.1 mph 21.9 mph N/A   Scattered Clouds
6:35 PM 76.5 °F - 71.6 °F 85% 29.86 in 7.0 mi South 5.8 mph - N/A Rain Rain
6:55 PM 74.8 °F - 71.6 °F 90% 29.86 in 10.0 mi East 3.5 mph - N/A Rain Light Rain
7:15 PM 74.8 °F - 72.5 °F 92% 29.86 in 10.0 mi SE 3.5 mph - N/A   Clear
7:35 PM 74.5 °F - 72.0 °F 92% 29.87 in 10.0 mi Calm Calm - N/A   Clear
7:55 PM 74.3 °F - 71.6 °F 91% 29.87 in 10.0 mi SSE 6.9 mph - N/A   Clear
8:15 PM 73.6 °F - 71.2 °F 92% 29.87 in 10.0 mi SE 4.6 mph - N/A   Clear
8:35 PM 73.4 °F - 71.1 °F 92% 29.88 in 10.0 mi SE 4.6 mph - N/A   Clear
8:55 PM 73.0 °F - 71.2 °F 94% 29.88 in 10.0 mi SE 3.5 mph - N/A   Clear
9:15 PM 72.9 °F - 71.1 °F 94% 29.88 in 10.0 mi Calm Calm - N/A Thunderstorm Clear
9:35 PM 72.7 °F - 71.1 °F 95% 29.88 in 10.0 mi SE 3.5 mph - N/A   Clear
10:55 PM 72.9 °F - 71.2 °F 95% 29.89 in 10.0 mi Calm Calm - N/A   Scattered Clouds
11:15 PM 73.0 °F - 71.2 °F 94% 29.90 in 10.0 mi Calm Calm - N/A   Mostly Cloudy
11:35 PM 73.2 °F - 71.6 °F 95% 29.90 in 10.0 mi SE 3.5 mph - N/A   Overcast
11:55 PM 73.6 °F - 72.0 °F 95% 29.89 in 3.0 mi SSE 10.4 mph - 0.10 in Rain Rain